DateTime,F1_A11,F1_S11,BsB_S11,BsG_S11,BsR_S11,BbsB_S11,BbsG_S11,BbsR_S11,BaB_A11,BaG_A11,BaR_A11,T_S11,U_S11,P_S11,T1_A11
2016-12-31T00:00:00Z,0000380,21000600,,,,,,,,,,27.8,00.0,0651.9,34.7
2016-12-31T00:01:00Z,0000380,21000600,,,,,,,,,,27.8,00.0,0651.9,34.7
2016-12-31T00:02:00Z,0000380,21000600,,,,,,,,,,27.8,00.0,0651.9,34.7
2016-12-31T00:03:00Z,0000380,61000600,,,,,,,,,,27.8,00.0,0651.9,34.7
2016-12-31T00:04:00Z,0000380,41000600,0001.73,0001.71,0000.97,0000.33,-000.12,0000.29,-000.03,0000.07,0000.04,27.7,00.0,0652.9,34.7
2016-12-31T00:05:00Z,0000380,01000600,0001.92,0001.46,0000.84,0000.32,0000.18,-000.03,0000.06,-000.06,-000.01,27.7,00.0,0653.0,34.7
2016-12-31T00:06:00Z,0000380,01000600,0000.82,0001.50,0001.23,0000.66,0000.13,-000.06,0000.19,0000.17,0000.25,27.7,00.0,0653.0,34.7
2016-12-31T00:07:00Z,0000380,01000600,0002.14,0001.34,0001.05,-000.23,0000.28,0000.25,-000.06,0000.14,-000.35,27.7,00.0,0653.0,34.7
2016-12-31T00:08:00Z,0000380,01000600,0001.62,0001.79,0001.50,-000.08,0000.01,0000.33,0000.26,0000.12,0000.44,27.7,00.0,0653.0,34.7
2016-12-31T00:09:00Z,0000380,01000600,0002.18,0001.48,0000.93,-000.04,0000.03,0000.44,0000.04,-000.08,0000.14,27.7,00.0,0653.0,34.7
2016-12-31T00:10:00Z,0000380,01000600,0001.92,0001.80,0001.44,0000.23,0000.01,0000.26,0000.15,0000.08,0000.39,27.6,00.0,0652.9,34.7
2016-12-31T00:11:00Z,0000380,01000600,0001.74,0001.36,0001.37,0000.30,0000.31,-000.05,0000.08,0000.21,-000.40,27.6,00.0,0652.9,34.7
2016-12-31T00:12:00Z,0000380,01000600,0001.35,0001.61,0001.15,0000.04,-000.20,-000.18,-000.02,-000.01,0000.07,27.6,00.0,0653.0,34.7
2016-12-31T00:13:00Z,0000380,01000600,0002.07,0000.48,0000.01,-000.40,0000.03,-000.28,0000.09,-000.04,-000.18,27.6,00.0,0653.0,34.7
2016-12-31T00:14:00Z,0000380,01000600,0001.00,0001.16,0001.16,0000.47,-000.18,0000.38,0000.09,0000.12,0000.28,27.6,00.0,0653.0,34.7
2016-12-31T00:15:00Z,0000380,01000600,0001.86,0001.06,0001.12,0000.18,-000.25,-000.38,0000.12,-000.00,0000.07,27.6,00.0,0653.1,34.7
2016-12-31T00:16:00Z,0000380,01000600,0001.68,0001.06,0000.96,0000.51,-000.19,-000.04,0000.06,0000.03,0000.07,27.6,00.0,0653.1,34.7
2016-12-31T00:17:00Z,0000380,01000600,0001.41,0002.05,0000.96,0000.91,-000.18,0000.44,0000.02,0000.11,0000.08,27.6,00.0,0653.1,34.7
2016-12-31T00:18:00Z,0000380,01000600,0003.21,0001.79,0001.12,0000.49,0000.47,0000.36,0000.02,0000.11,-000.06,27.6,00.0,0653.1,34.7
2016-12-31T00:19:00Z,0000380,01000600,0002.37,0001.24,0001.76,0000.69,-000.73,0000.50,0000.21,-000.16,0000.00,27.6,00.0,0653.1,34.7
2016-12-31T00:20:00Z,0000380,01000600,0002.12,0001.43,0000.64,0000.06,-000.33,-000.05,-000.06,0000.29,0000.05,27.5,00.0,0653.1,34.7
2016-12-31T00:21:00Z,0000380,01000600,0001.88,0001.83,0000.85,-000.06,-000.05,-000.01,0000.11,-000.06,0000.02,27.5,00.0,0653.1,34.7
2016-12-31T00:22:00Z,0000380,01000600,0001.39,0001.77,0001.56,0000.41,-000.13,0000.68,-000.00,-000.07,-000.20,27.5,00.0,0653.1,34.7
2016-12-31T00:23:00Z,0000380,01000600,0002.44,0002.29,0000.94,-000.07,0000.03,0000.06,0000.04,0000.13,0000.19,27.5,00.0,0653.1,34.7
2016-12-31T00:24:00Z,0000380,01000600,0001.90,0001.72,0001.29,0000.70,0000.02,0000.17,0000.13,0000.17,0000.28,27.5,00.0,0653.2,34.7
2016-12-31T00:25:00Z,0000380,01000600,0001.59,0001.42,0001.28,0000.02,-000.25,0000.21,-000.06,-000.03,0000.03,27.5,00.0,0653.2,34.7
2016-12-31T00:26:00Z,0000380,01000600,0001.43,0001.17,0001.37,-000.17,-000.04,-000.03,0000.29,0000.16,0000.04,27.5,00.0,0653.1,34.7
2016-12-31T00:27:00Z,0000380,01000600,0002.54,0001.39,0001.11,-000.91,0000.13,-000.32,-000.10,-000.11,-000.08,27.4,00.0,0653.1,34.7
2016-12-31T00:28:00Z,0000380,01000600,0002.14,0001.52,0001.41,0000.11,-000.07,0000.08,0000.05,0000.11,-000.03,27.4,00.0,0653.1,34.7
2016-12-31T00:29:00Z,0000380,01000600,0001.08,0001.71,0001.05,0000.18,-000.18,0000.02,0000.16,-000.07,0000.04,27.4,00.0,0653.1,34.7
2016-12-31T00:30:00Z,0000380,01000600,0002.83,0001.46,0001.10,-001.18,0000.45,0000.07,-000.05,0000.25,0000.13,27.4,00.0,0653.1,34.7
2016-12-31T00:31:00Z,0000380,01000600,0002.45,0001.40,0001.21,-000.25,0000.27,0000.38,0000.19,-000.03,0000.25,27.4,00.0,0653.2,34.7
2016-12-31T00:32:00Z,0000380,01000600,0002.03,0001.18,0001.44,-000.21,-000.25,0000.05,0000.17,0000.17,0000.13,27.4,00.0,0653.2,34.7
2016-12-31T00:33:00Z,0000380,01000600,0001.72,0001.52,0001.68,0000.03,-000.34,-000.39,-000.04,0000.02,0000.02,27.4,00.0,0653.2,34.7
2016-12-31T00:34:00Z,0000380,01000600,0002.05,0001.42,0001.26,0000.33,-000.12,-000.00,0000.18,0000.03,-000.17,27.4,00.0,0653.2,34.7
2016-12-31T00:35:00Z,0000380,01000600,0002.06,0001.39,0000.35,0000.61,-000.44,-000.20,0000.03,0000.21,0000.45,27.4,00.0,0653.2,34.7
2016-12-31T00:36:00Z,0000380,01000600,0001.77,0002.34,0001.02,0000.12,0000.01,0000.32,0000.04,0000.02,-000.26,27.4,00.0,0653.2,34.7
2016-12-31T00:37:00Z,0000380,01000600,0001.60,0001.73,0001.10,0000.01,0000.17,-000.12,0000.22,0000.04,0000.32,27.3,00.0,0653.2,34.7
2016-12-31T00:38:00Z,0000380,01000600,0002.52,0002.37,0001.40,0000.32,-000.09,0000.14,-000.01,0000.21,-000.33,27.3,00.0,0653.2,34.7
2016-12-31T00:39:00Z,0000380,01000600,0001.46,0001.70,0001.21,0000.49,0000.29,0000.09,0000.14,-000.04,0000.13,27.3,00.0,0653.3,34.7
2016-12-31T00:40:00Z,0000380,01000600,0002.17,0002.38,0001.18,0000.11,-000.19,0000.25,-000.03,0000.02,-000.08,27.3,00.0,0653.3,34.7
2016-12-31T00:41:00Z,0000380,01000600,0002.69,0001.89,0001.56,-000.45,0000.52,0000.47,0000.22,0000.19,0000.13,27.3,00.0,0653.3,34.7
2016-12-31T00:42:00Z,0000380,01000600,0002.31,0001.60,0001.40,0000.43,-000.50,0000.37,0000.06,-000.01,0000.30,27.3,00.0,0653.3,34.7
2016-12-31T00:43:00Z,0000380,01000600,0002.10,0002.07,0001.13,0000.00,0000.02,0000.23,0000.02,-000.00,-000.12,27.3,00.0,0653.3,34.7
2016-12-31T00:44:00Z,0000380,01000600,0002.64,0001.66,0001.23,0000.74,0000.04,0000.38,0000.12,0000.13,0000.22,27.3,00.0,0653.3,34.7
2016-12-31T00:45:00Z,0000380,01000600,0001.03,0002.02,0001.05,0000.89,0000.29,0000.18,-000.08,0000.20,-000.09,27.3,00.0,0653.3,34.7
2016-12-31T00:46:00Z,0000380,01000600,0002.99,0001.64,0001.17,0000.11,-000.07,0000.21,-000.00,-000.03,-000.10,27.3,00.0,0653.3,34.7
2016-12-31T00:47:00Z,0000380,01000600,0003.14,0002.03,0001.62,0000.93,0000.06,0000.11,0000.37,-000.02,0000.01,27.3,00.0,0653.3,34.7
2016-12-31T00:48:00Z,0000380,01000600,0003.12,0001.55,0001.79,0001.16,-000.22,0000.52,-000.10,0000.19,0000.16,27.2,00.0,0653.3,34.7
2016-12-31T00:49:00Z,0000380,01000600,0003.56,0001.73,0001.08,-000.08,-000.07,0000.01,0000.25,-000.18,0000.24,27.2,00.0,0653.3,34.7
2016-12-31T00:50:00Z,0000380,01000600,0002.08,0001.62,0001.63,-000.04,-000.18,0000.14,-000.20,0000.32,0000.12,27.2,00.0,0653.3,34.7
2016-12-31T00:51:00Z,0000380,01000600,0002.53,0001.47,0001.53,0000.49,0000.45,0000.10,0000.17,0000.12,-000.06,27.2,00.0,0653.3,34.7
2016-12-31T00:52:00Z,0000380,01000600,0002.35,0002.18,0001.63,0000.64,0000.03,0000.23,-000.04,-000.20,-000.02,27.2,00.0,0653.3,34.7
2016-12-31T00:53:00Z,0000380,01000600,0002.76,0001.85,0001.07,0000.62,-000.00,0000.04,0000.30,0000.24,0000.31,27.2,00.0,0653.3,34.7
2016-12-31T00:54:00Z,0000380,01000600,0003.09,0002.67,0001.61,0000.50,0000.41,0000.39,0000.11,0000.14,-000.14,27.2,00.0,0653.4,34.7
2016-12-31T00:55:00Z,0000380,01000600,0003.60,0001.79,0001.40,-000.07,0000.23,0000.34,-000.02,0000.09,0000.22,27.2,00.0,0653.4,34.7
2016-12-31T00:56:00Z,0000380,01000600,0003.14,0002.31,0001.51,0000.16,-000.03,-000.31,0000.40,0000.05,-000.05,27.2,00.0,0653.4,34.7
2016-12-31T00:57:00Z,0000380,41000600,,,,,,,,,,27.2,00.0,0653.4,34.7
2016-12-31T00:58:00Z,0000380,61000600,,,,,,,,,,27.1,00.0,0652.4,34.7
2016-12-31T00:59:00Z,0000380,21000600,,,,,,,,,,27.2,00.0,0652.4,34.7
2016-12-31T01:00:00Z,0000380,21000600,,,,,,,,,,27.2,00.0,0652.4,34.7
2016-12-31T01:01:00Z,0000380,21000600,,,,,,,,,,27.2,00.0,0652.4,34.7
2016-12-31T01:02:00Z,0000380,21000600,,,,,,,,,,27.2,00.0,0652.4,34.7
2016-12-31T01:03:00Z,0000380,61000600,,,,,,,,,,27.2,00.0,0652.4,34.7
2016-12-31T01:04:00Z,0000380,41000600,0000.74,0003.06,0001.63,0000.08,0000.30,0000.74,0000.20,0000.15,0000.27,27.1,00.0,0653.4,34.7
2016-12-31T01:05:00Z,0000380,01000600,0002.58,0001.71,0001.32,0000.09,0000.06,0000.10,0000.18,0000.19,-000.13,27.1,00.0,0653.5,34.7
2016-12-31T01:06:00Z,0000380,01000600,0002.13,0002.10,0001.49,0000.13,0000.04,0000.64,-000.05,-000.03,0000.11,27.1,00.0,0653.5,34.7
2016-12-31T01:07:00Z,0000380,01000600,0002.99,0002.31,0001.53,-000.07,0000.55,0000.08,0000.09,0000.13,0000.08,27.1,00.0,0653.6,34.7
2016-12-31T01:08:00Z,0000380,01000600,0001.78,0001.49,0001.14,-000.05,0000.17,0000.17,0000.23,-000.04,-000.04,27.1,00.0,0653.6,34.7
2016-12-31T01:09:00Z,0000380,01000600,0000.81,0001.52,0001.51,0000.47,-000.30,0000.67,0000.07,0000.13,0000.02,27.1,00.0,0653.6,34.7
2016-12-31T01:10:00Z,0000380,01000600,0002.10,0002.12,0001.75,0000.46,0000.43,0000.38,0000.07,0000.07,0000.10,27.0,00.0,0653.6,34.7
2016-12-31T01:11:00Z,0000380,01000600,0001.64,0002.58,0001.18,0000.43,-000.24,0000.51,0000.05,0000.04,0000.17,27.0,00.0,0653.6,34.7
2016-12-31T01:12:00Z,0000380,01000600,0002.35,0002.00,0000.96,0000.19,0000.27,0000.41,0000.14,0000.14,0000.14,27.0,00.0,0653.6,34.7
2016-12-31T01:13:00Z,0000380,01000600,0000.96,0002.24,0001.62,0000.26,0000.19,0000.85,0000.08,0000.11,-000.17,27.0,00.0,0653.6,34.7
2016-12-31T01:14:00Z,0000380,01000600,0002.90,0002.55,0001.38,0000.45,0000.25,0000.20,0000.09,0000.11,0000.32,27.0,00.0,0653.6,34.7
2016-12-31T01:15:00Z,0000380,01000600,0001.62,0002.44,0001.53,0000.78,0000.07,0000.24,0000.26,0000.06,-000.12,27.0,00.0,0653.6,34.7
2016-12-31T01:16:00Z,0000380,01000600,0001.30,0001.62,0001.20,0000.31,-000.19,0000.36,0000.08,0000.02,0000.28,27.0,00.0,0653.6,34.7
2016-12-31T01:17:00Z,0000380,01000600,0001.67,0002.25,0001.17,0000.31,-000.02,0000.28,0000.02,0000.15,-000.39,27.0,00.0,0653.6,34.7
2016-12-31T01:18:00Z,0000380,01000600,0002.25,0002.12,0001.44,0000.10,-000.00,0000.35,-000.05,0000.17,0000.53,27.0,00.0,0653.6,34.7
2016-12-31T01:19:00Z,0000380,01000600,0001.76,0001.76,0001.44,0000.55,0000.31,-000.15,0000.23,0000.08,-000.07,26.9,00.0,0653.6,34.6
2016-12-31T01:20:00Z,0000380,01000600,0003.58,0001.46,0001.93,0000.94,0000.46,0000.40,0000.13,0000.01,-000.07,26.9,00.0,0653.6,34.6
2016-12-31T01:21:00Z,0000380,01000600,0001.47,0002.24,0001.55,0000.50,0000.45,0000.90,0000.08,0000.14,0000.44,26.9,00.0,0653.6,34.6
2016-12-31T01:22:00Z,0000380,01000600,0002.29,0001.63,0001.84,0000.57,0000.36,0000.36,0000.13,0000.01,-000.10,26.9,00.0,0653.6,34.6
2016-12-31T01:23:00Z,0000380,01000600,0002.87,0002.41,0001.37,-000.57,0000.16,0000.87,0000.24,0000.25,0000.14,26.9,00.0,0653.6,34.6
2016-12-31T01:24:00Z,0000380,01000600,0001.20,0002.44,0001.52,-000.13,0000.16,0000.51,-000.07,-000.07,-000.05,26.9,00.0,0653.6,34.6
2016-12-31T01:25:00Z,0000380,01000600,0001.09,0002.11,0002.01,0000.58,0000.29,0000.74,0000.13,0000.21,0000.05,26.9,00.0,0653.6,34.7
2016-12-31T01:26:00Z,0000380,01000600,0002.10,0002.87,0001.17,0000.77,0000.39,0000.38,0000.25,0000.10,0000.09,26.9,00.0,0653.6,34.6
2016-12-31T01:27:00Z,0000380,01000600,0001.77,0002.90,0001.22,0000.75,-000.03,0000.66,-000.12,0000.09,-000.20,26.9,00.0,0653.7,34.6
2016-12-31T01:28:00Z,0000380,01000600,0002.28,0002.56,0001.42,-000.04,0000.05,0000.47,0000.23,0000.05,0000.54,26.9,00.0,0653.7,34.6
2016-12-31T01:29:00Z,0000380,01000600,0001.74,0002.14,0000.92,0000.77,-000.16,0000.48,-000.03,0000.05,-000.14,26.9,00.0,0653.7,34.6
2016-12-31T01:30:00Z,0000380,01000600,0001.35,0002.34,0001.34,-000.54,0000.04,0000.56,0000.21,0000.02,-000.07,26.9,00.0,0653.7,34.6
2016-12-31T01:31:00Z,0000380,01000600,0003.37,0001.51,0001.32,0000.72,0000.23,0000.77,-000.08,0000.05,0000.20,26.8,00.0,0653.7,34.6
2016-12-31T01:32:00Z,0000380,01000600,0003.56,0002.19,0000.77,0000.75,0000.63,0000.35,0000.12,-000.07,0000.10,26.8,00.0,0653.7,34.6
2016-12-31T01:33:00Z,0000380,01000600,0001.80,0002.08,0001.77,-000.04,-000.23,0000.51,0000.25,0000.14,0000.13,26.8,00.0,0653.7,34.6
2016-12-31T01:34:00Z,0000380,01000600,0002.09,0002.23,0001.66,0000.03,0000.06,0000.25,0000.02,-000.02,-000.03,26.8,00.0,0653.7,34.6
2016-12-31T01:35:00Z,0000380,01000600,0003.26,0002.35,0001.62,-000.42,0000.08,0000.73,-000.05,0000.14,-000.07,26.8,00.0,0653.7,34.6
2016-12-31T01:36:00Z,0000380,01000600,0001.79,0002.91,0001.80,0000.36,0000.34,0000.27,0000.30,0000.15,0000.25,26.8,00.0,0653.7,34.6
2016-12-31T01:37:00Z,0000380,01000600,0002.81,0002.70,0001.19,0000.69,-000.00,0000.15,0000.06,-000.00,0000.02,26.8,00.0,0653.8,34.6
2016-12-31T01:38:00Z,0000380,01000600,0003.22,0002.08,0001.35,0000.13,-000.20,0000.22,0000.06,0000.04,-000.19,26.7,00.0,0653.7,34.6
2016-12-31T01:39:00Z,0000380,01000600,0002.72,0003.18,0001.49,0000.40,0000.30,0000.58,-000.02,0000.13,0000.22,26.7,00.0,0653.8,34.6
2016-12-31T01:40:00Z,0000380,01000600,0003.01,0002.12,0001.05,-000.05,-000.03,0000.63,0000.19,-000.11,-000.15,26.7,00.0,0653.8,34.7
2016-12-31T01:41:00Z,0000380,01000600,0003.03,0002.56,0001.76,0000.43,0000.36,0000.71,0000.09,0000.22,0000.26,26.7,00.0,0653.8,34.7
2016-12-31T01:42:00Z,0000380,01000600,0003.11,0002.73,0001.66,0000.25,0000.28,0000.71,0000.03,-000.06,-000.20,26.7,00.0,0653.8,34.7
2016-12-31T01:43:00Z,0000380,01000600,0003.20,0002.63,0001.38,0000.42,0000.26,0000.81,0000.09,0000.25,0000.39,26.7,00.0,0653.8,34.6
2016-12-31T01:44:00Z,0000380,01000600,0003.14,0002.58,0001.31,-000.43,0000.88,0000.34,-000.03,-000.17,0000.02,26.7,00.0,0653.8,34.7
2016-12-31T01:45:00Z,0000380,01000600,0002.82,0002.08,0001.27,-000.03,0000.04,0000.49,0000.15,0000.11,-000.02,26.7,00.0,0653.8,34.6
2016-12-31T01:46:00Z,0000380,01000600,0002.74,0002.15,0001.82,0000.20,0000.06,0000.48,0000.02,0000.12,0000.03,26.7,00.0,0653.8,34.7
2016-12-31T01:47:00Z,0000380,01000600,0002.80,0001.94,0001.86,0001.05,0000.05,0000.15,0000.15,0000.08,0000.01,26.7,00.0,0653.9,34.7
2016-12-31T01:48:00Z,0000380,01000600,0003.38,0002.33,0001.39,0000.78,0000.54,0000.68,0000.04,0000.10,-000.06,26.6,00.0,0653.9,34.6
2016-12-31T01:49:00Z,0000380,01000600,0002.74,0002.03,0001.46,0000.40,0000.22,0000.41,0000.10,0000.08,0000.23,26.7,00.0,0653.9,34.6
2016-12-31T01:50:00Z,0000380,01000600,0002.22,0002.56,0001.14,0000.57,-000.07,0000.56,-000.02,0000.13,0000.09,26.7,00.0,0653.9,34.6
2016-12-31T01:51:00Z,0000380,01000600,0002.22,0002.23,0001.29,0000.44,0000.37,0000.43,0000.26,0000.02,-000.31,26.6,00.0,0653.8,34.6
2016-12-31T01:52:00Z,0000380,01000600,0003.02,0002.11,0002.21,0000.09,0000.17,0000.55,-000.01,0000.05,0000.54,26.6,00.0,0653.8,34.6
2016-12-31T01:53:00Z,0000380,01000600,0002.77,0002.37,0002.18,0000.29,-000.13,0000.41,0000.20,0000.08,-000.28,26.6,00.0,0653.8,34.6
2016-12-31T01:54:00Z,0000380,01000600,0002.27,0002.49,0001.55,0000.50,-000.23,0000.78,0000.16,0000.01,0000.12,26.6,00.0,0653.8,34.6
2016-12-31T01:55:00Z,0000380,01000600,0003.11,0001.40,0001.08,0000.49,0000.50,0000.38,-000.03,0000.08,0000.20,26.6,00.0,0653.9,34.6
2016-12-31T01:56:00Z,0000380,01000600,0002.32,0002.37,0001.65,0000.47,0000.07,0000.13,0000.10,0000.09,-000.10,26.6,00.0,0653.9,34.6
2016-12-31T01:57:00Z,0000380,41000600,,,,,,,,,,26.6,00.0,0653.8,34.6
2016-12-31T01:58:00Z,0000380,61000600,,,,,,,,,,26.6,00.0,0652.9,34.6
2016-12-31T01:59:00Z,0000380,21000600,,,,,,,,,,26.6,00.0,0652.9,34.6
2016-12-31T02:00:00Z,0000380,21000600,,,,,,,,,,26.6,00.0,0652.9,34.6
2016-12-31T02:01:00Z,0000380,21000600,,,,,,,,,,26.6,00.0,0652.9,34.6
2016-12-31T02:02:00Z,0000380,21000600,,,,,,,,,,26.6,00.0,0652.9,34.6
2016-12-31T02:03:00Z,0000380,61000600,,,,,,,,,,26.6,00.0,0652.9,34.6
2016-12-31T02:04:00Z,0000380,41000600,0003.64,0002.40,0002.07,-000.34,0000.63,0000.51,0000.24,0000.21,0000.02,26.5,00.0,0653.8,34.6
2016-12-31T02:05:00Z,0000380,01000600,0003.52,0001.82,0002.52,-000.14,0000.24,0000.21,-000.05,0000.06,0000.13,26.5,00.0,0653.9,34.6
2016-12-31T02:06:00Z,0000380,01000600,0003.03,0002.86,0001.73,0000.45,0001.01,0000.06,0000.19,0000.01,0000.14,26.5,00.0,0653.9,34.6
2016-12-31T02:07:00Z,0000380,01000600,0003.25,0003.16,0001.66,-000.23,0000.15,-000.08,0000.16,0000.35,-000.09,26.5,00.0,0653.9,34.6
2016-12-31T02:08:00Z,0000380,01000600,0003.28,0002.55,0002.21,0000.81,0000.10,0000.43,0000.15,0000.05,0000.23,26.5,00.0,0653.9,34.6
2016-12-31T02:09:00Z,0000380,01000600,0003.87,0002.55,0002.05,-000.14,0000.35,-000.16,0000.04,0000.08,0000.07,26.4,00.0,0653.9,34.6
2016-12-31T02:10:00Z,0000380,01000600,0005.00,0002.68,0002.16,0000.10,0000.09,0000.48,0000.10,0000.05,0000.11,26.4,00.0,0653.9,34.6
2016-12-31T02:11:00Z,0000380,01000600,0003.58,0002.31,0001.84,0000.52,0000.23,-000.06,-000.03,0000.20,0000.14,26.4,00.0,0653.9,34.6
2016-12-31T02:12:00Z,0000380,01000600,0003.78,0002.68,0002.06,-000.68,0000.20,0000.64,0000.25,-000.04,0000.09,26.4,00.0,0654.0,34.6
2016-12-31T02:13:00Z,0000380,01000600,0003.71,0002.40,0001.76,0000.48,0000.36,0000.25,0000.18,0000.12,0000.05,26.4,00.0,0654.0,34.6
2016-12-31T02:14:00Z,0000380,01000600,0003.45,0001.75,0001.88,0000.47,0000.21,-000.28,0000.16,0000.22,0000.13,26.4,00.0,0654.0,34.6
2016-12-31T02:15:00Z,0000380,01000600,0002.14,0003.05,0002.59,0000.57,0000.67,0000.17,0000.12,0000.06,0000.03,26.3,00.0,0654.1,34.6
2016-12-31T02:16:00Z,0000380,01000600,0003.39,0003.07,0002.63,0000.21,-000.05,0000.34,-000.08,0000.08,-000.17,26.3,00.0,0654.1,34.6
2016-12-31T02:17:00Z,0000380,01000600,0003.79,0002.86,0001.73,0000.27,-000.11,0000.25,0000.04,0000.13,0000.31,26.3,00.0,0654.1,34.6
2016-12-31T02:18:00Z,0000380,01000600,0003.94,0002.99,0001.60,-000.25,0000.58,0000.05,0000.20,-000.12,0000.16,26.3,00.0,0654.1,34.6
2016-12-31T02:19:00Z,0000380,01000600,0002.90,0002.76,0002.09,0000.35,0000.30,0000.09,0000.11,0000.11,-000.17,26.3,00.0,0654.1,34.6
2016-12-31T02:20:00Z,0000380,01000600,0004.01,0002.73,0002.17,0000.25,-000.07,0000.21,-000.09,0000.14,-000.05,26.3,00.0,0654.2,34.6
2016-12-31T02:21:00Z,0000380,01000600,0002.67,0002.84,0002.26,0000.10,-000.27,0000.35,0000.19,0000.17,0000.27,26.3,00.0,0654.2,34.6
2016-12-31T02:22:00Z,0000380,01000600,0004.58,0001.97,0001.11,0000.26,0000.90,0000.19,0000.25,-000.02,0000.07,26.3,00.0,0654.2,34.6
2016-12-31T02:23:00Z,0000380,01000600,0002.36,0003.11,0002.23,-000.01,0000.55,0000.02,0000.15,0000.22,0000.28,26.3,00.0,0654.2,34.6
2016-12-31T02:24:00Z,0000380,01000600,0003.26,0002.41,0001.75,0000.15,0000.74,-000.05,0000.02,0000.08,-000.09,26.2,00.0,0654.2,34.6
2016-12-31T02:25:00Z,0000380,01000600,0002.97,0002.65,0001.86,0000.84,0000.50,-000.03,0000.12,0000.01,-000.13,26.2,00.0,0654.3,34.6
2016-12-31T02:26:00Z,0000380,01000600,0003.49,0002.71,0001.92,0000.01,0000.09,0000.01,0000.13,0000.17,0000.34,26.2,00.0,0654.3,34.6
2016-12-31T02:27:00Z,0000380,01000600,0003.12,0002.86,0001.86,0000.58,0000.16,-000.13,0000.10,0000.20,0000.16,26.2,00.0,0654.3,34.6
2016-12-31T02:28:00Z,0000380,01000600,0003.05,0002.59,0002.04,0001.12,0000.13,0000.65,0000.16,0000.03,0000.13,26.2,00.0,0654.3,34.6
2016-12-31T02:29:00Z,0000380,01000600,0003.65,0002.93,0002.31,0000.16,0000.72,0000.16,0000.12,0000.18,-000.03,26.2,00.0,0654.3,34.6
2016-12-31T02:30:00Z,0000380,01000600,0003.69,0002.72,0001.76,-000.22,0000.07,-000.16,0000.20,-000.04,0000.00,26.2,00.0,0654.4,34.6
2016-12-31T02:31:00Z,0000380,01000600,0003.75,0003.12,0001.94,0000.28,0000.32,0000.15,0000.21,0000.13,0000.28,26.2,00.0,0654.4,34.6
2016-12-31T02:32:00Z,0000380,01000600,0004.33,0002.85,0003.15,-000.26,0000.04,0000.30,0000.02,0000.27,0000.06,26.2,00.0,0654.4,34.6
2016-12-31T02:33:00Z,0000380,01000600,0004.09,0002.98,0001.54,0000.18,0000.02,0000.07,0000.08,-000.12,0000.02,26.1,00.0,0654.4,34.6
2016-12-31T02:34:00Z,0000380,01000600,0004.89,0003.19,0001.98,-000.09,0000.72,0000.15,0000.26,0000.15,0000.09,26.1,00.0,0654.4,34.6
2016-12-31T02:35:00Z,0000380,01000600,0003.86,0002.28,0001.90,0000.44,0000.18,0000.38,0000.01,0000.08,-000.12,26.1,00.0,0654.4,34.6
2016-12-31T02:36:00Z,0000380,01000600,0004.38,0002.45,0002.31,0000.73,0000.05,0000.27,0000.12,0000.10,0000.19,26.1,00.0,0654.4,34.6
2016-12-31T02:37:00Z,0000380,01000600,0003.02,0003.04,0002.44,0000.27,0000.19,0000.31,-000.01,0000.07,-000.05,26.1,00.0,0654.3,34.6
2016-12-31T02:38:00Z,0000380,01000600,0004.15,0003.15,0002.22,0000.19,-000.11,0000.57,0000.29,0000.20,0000.38,26.1,00.0,0654.3,34.6
2016-12-31T02:39:00Z,0000380,01000600,0004.76,0002.80,0002.40,0000.34,0000.37,0000.42,0000.01,0000.10,0000.08,26.1,00.0,0654.3,34.6
2016-12-31T02:40:00Z,0000380,01000600,0004.46,0002.65,0001.82,0000.50,0000.30,0000.37,0000.26,0000.29,-000.10,26.1,00.0,0654.3,34.6
2016-12-31T02:41:00Z,0000380,01000600,0004.58,0002.49,0002.32,0000.47,0000.50,0000.53,0000.31,0000.26,0000.61,26.1,00.0,0654.4,34.6
2016-12-31T02:42:00Z,0000380,01000600,0004.13,0003.46,0002.21,0000.01,0000.21,0000.45,-000.02,-000.09,0000.15,26.1,00.0,0654.4,34.6
2016-12-31T02:43:00Z,0000380,01000600,0003.33,0003.11,0002.51,0000.03,0000.40,0000.10,0000.18,0000.37,-000.15,26.1,00.0,0654.4,34.6
2016-12-31T02:44:00Z,0000380,01000600,0004.26,0002.46,0002.35,0000.09,-000.04,-000.05,0000.10,0000.06,-000.25,26.1,00.0,0654.4,34.6
2016-12-31T02:45:00Z,0000380,01000600,0003.92,0002.51,0002.75,0001.52,0000.16,0000.72,0000.10,0000.02,0000.42,26.1,00.0,0654.3,34.6
2016-12-31T02:46:00Z,0000380,01000600,0004.20,0002.69,0002.55,0000.40,0000.15,0000.43,-000.00,0000.06,0000.04,26.1,00.0,0654.4,34.6
2016-12-31T02:47:00Z,0000380,01000600,0003.81,0003.39,0002.10,0000.57,0000.53,0000.51,0000.41,0000.20,0000.34,26.1,00.0,0654.4,34.6
2016-12-31T02:48:00Z,0000380,01000600,0004.89,0003.44,0002.45,0000.66,0000.68,0000.33,-000.19,0000.01,-000.10,26.1,00.0,0654.4,34.6
2016-12-31T02:49:00Z,0000380,01000600,0004.15,0003.07,0002.41,0000.24,-000.19,0000.55,0000.36,0000.10,0000.15,26.1,00.0,0654.4,34.6
2016-12-31T02:50:00Z,0000380,01000600,0005.07,0003.66,0002.35,0000.12,0000.53,0000.26,0000.14,0000.16,-000.05,26.1,00.0,0654.4,34.6
2016-12-31T02:51:00Z,0000380,01000600,0004.32,0003.10,0002.34,0000.60,0000.16,0000.24,0000.22,0000.21,0000.12,26.1,00.0,0654.3,34.6
2016-12-31T02:52:00Z,0000380,01000600,0004.82,0003.45,0002.24,0000.02,0000.18,0000.40,0000.08,0000.19,0000.21,26.1,00.0,0654.3,34.6
2016-12-31T02:53:00Z,0000380,01000600,0004.74,0004.02,0002.43,0000.64,0000.24,0000.15,0000.26,-000.01,0000.20,26.1,00.0,0654.3,34.6
2016-12-31T02:54:00Z,0000380,01000600,0004.20,0003.41,0002.30,0000.64,0000.09,0000.08,0000.12,0000.32,-000.10,26.2,00.0,0654.3,34.6
2016-12-31T02:55:00Z,0000380,01000600,0004.60,0003.01,0002.61,0000.45,0000.31,0000.71,0000.20,0000.17,0000.21,26.2,00.0,0654.4,34.6
2016-12-31T02:56:00Z,0000380,01000600,0004.56,0004.25,0002.32,0000.53,0000.24,0000.47,0000.09,-000.11,0000.10,26.2,00.0,0654.4,34.6
2016-12-31T02:57:00Z,0000380,41000600,,,,,,,,,,26.2,00.0,0654.3,34.6
2016-12-31T02:58:00Z,0000380,61000600,,,,,,,,,,26.1,00.0,0653.4,34.6
2016-12-31T02:59:00Z,0000380,21000600,,,,,,,,,,26.1,00.0,0653.4,34.6
2016-12-31T03:00:00Z,0000380,21000600,,,,,,,,,,26.1,00.0,0653.4,34.6
2016-12-31T03:01:00Z,0000380,21000600,,,,,,,,,,26.1,00.0,0653.4,34.6
2016-12-31T03:02:00Z,0000380,21000600,,,,,,,,,,26.1,00.0,0653.4,34.6
2016-12-31T03:03:00Z,0000380,61000600,,,,,,,,,,26.1,00.0,0653.4,34.6
2016-12-31T03:04:00Z,0000380,41000600,0004.55,0003.84,0002.33,0000.06,0000.12,0000.35,0000.19,0000.19,0000.11,26.1,00.0,0654.3,34.6
2016-12-31T03:05:00Z,0000380,01000600,0004.75,0003.16,0002.42,-000.16,0000.27,0000.69,0000.17,0000.07,0000.18,26.1,00.0,0654.4,34.6
2016-12-31T03:06:00Z,0000380,01000600,0004.44,0003.26,0002.43,0000.20,0000.19,0000.30,0000.10,0000.21,0000.11,26.1,00.0,0654.4,34.6
2016-12-31T03:07:00Z,0000380,01000600,0004.73,0002.02,0001.96,-000.48,0000.43,0000.33,0000.12,0000.14,0000.02,26.1,00.0,0654.4,34.6
2016-12-31T03:08:00Z,0000380,01000600,0004.55,0003.25,0002.22,0000.42,0000.19,-000.02,0000.20,0000.23,0000.01,26.1,00.0,0654.4,34.6
2016-12-31T03:09:00Z,0000380,01000600,0004.94,0003.31,0001.89,0000.23,0000.43,0000.09,0000.13,0000.16,0000.20,26.1,00.0,0654.4,34.6
2016-12-31T03:10:00Z,0000380,01000600,0004.62,0003.09,0002.56,0000.12,0000.01,0000.48,0000.01,0000.08,0000.06,26.1,00.0,0654.4,34.6
2016-12-31T03:11:00Z,0000380,01000600,0004.49,0002.16,0002.27,-000.10,0000.45,0000.46,0000.32,0000.18,0000.57,26.1,00.0,0654.4,34.6